Location: Dimsdale
(55.1333°N, 118.9833°W)
Time: 14:02:55
(UTC+00:00)

PCSat - Pass Details

Date: 13 December 2023
Orbit: 784 x 792 km, 67.0° (Epoch: 04 March)

Event Time Altitude Azimuth Distance (km) Brightness Sun altitude
Exits shadow 15:07:43 10° 313° (NW) 2,395 11.4 -8.5°
Reaches altitude 10° 15:07:50 10° 314° (NW) 2,362 11.4 -8.5°
Maximum altitude 15:12:11 24° 8° (N) 1,600 11.0 -7.9°
Drops below altitude 10° 15:16:33 10° 61° (ENE) 2,364 12.5 -7.4°
Sets 15:19:26 0° 76° (ENE) 3,294 13.5 -7.1°
